Tracking 19709 objects as of 17-Jun-2019
HD Live streaming from Space Station
objects crossing your sky now

THORAD AGENA D DEB

Track THORAD AGENA D DEB now!
10-day predictions


NORAD ID: 4855
Int'l Code: 1970-025EK
Perigee: 988.7 km
Apogee: 1,014.1 km
Inclination: 100.0 °
Period: 105.0 minutes
Semi major axis: 7372 km
RCS: 0.055 m2 (small)
Launch date: April 8, 1970
Source: United States (US)
Launch site: AIR FORCE WESTERN TEST RANGE (AFWTR)

Note: This is SATELLITE DEBRIS
aabbcc
Your satellite tracking list
Your tracking list is empty




NASA's NSSDC Master Catalog

Two Line Element Set (TLE):
1  4855U 70025EK  19167.78207053 +.00000138 +00000-0 +20721-3 0  9999
2  4855 100.0317 343.5316 0017232 114.9600 001.2190 13.71480572446114
Source of the keplerian elements: AFSPC